SCP
0 0 0 0 0 0 0 0 0 0 0 0 0 0 0 0 0 0 0 0 0 0 0 0 0 0 0
0 0 0 0 0 0 0 0 0 0 0 0 0 0 0 0 0 0 0 0 0 0 0 0 0 0 0
0 0 0 0 0 0 0 0 0 0 0 0 0 0 0 0 0 0 0 0 0 0 0 0 0 0 0
0 0 0 0 0 0 0 0 0 0 0 0 0 0 0 0 0 0 0 0 0 0 0 0 0 0 0
0 0 0 0 0 0 0 0 0 0 0 0 0 0 0 0 0 0 0 0 0 0 0 0 0 0 0
0 0 0 0 0 0 0 0 0 0 0 0 0 0 0 0 0 0 0 0 0 0 0 0 0 0 0
0 0 0 0 0 0 0 0 0 0 0 0 0 0 0 0 0 0 0 0 0 0 0 0 0 0 -0
0 0 0 0 0 0 0 0 0 0 0 0 0 0 0 0 0 0 0 0 -0 0 0 0 0 -0 -0
0 0 0 0 0 0 0 0 0 0 0 0 0 0 0 0 0 0 0 0 0 0 0 0 -0 0 0
0 0 0 0 0 0 0 0 0 0 0 0 0 -0 0 0 0 0 0 0 0 0 0 -0 0 0 0
0 0 0 0 0 0 0 0 0 0 0 0 0 0 0 0 0 0 0 0 0 0 0 -0 0 0 0
0 0 0 0 0 0 0 0 0 0 0 0 0 0 0 0 0 0 0 0 0 0 0 0 0 0 0
0 0 0 0 0 0 0 0 0 0 0 0 0 0 0 0 0 0 0 0 0 0 0 0 0 0 0
0 0 0 0 0 0 0 0 0 0 0 0 0 0 0 0 0 0 0 0 0 0 0 0 0 0 0
0 0 0 0 0 0 0 0 0 0 0 0 0 0 0 0 0 0 0 0 0 0 0 0 0 0 0
0 0 0 0 0 0 0 0 0 0 0 0 0 0 0 0 0 0 0 0 0 0 0 0 0 0 0
Wind_Speed_500mb
24 24 25 30 24 30 36 41 47 34 31 28 41 53 53 39 26 34 34 37 32 32 27 23 25 22 15
25 23 24 31 34 29 32 38 53 47 46 35 41 43 50 37 32 29 34 35 35 36 28 24 23 21 14
26 25 24 29 31 26 36 31 38 44 44 34 41 35 33 42 27 27 28 37 37 39 29 22 20 18 14
26 28 27 29 33 29 33 46 43 46 42 33 41 33 36 30 24 28 32 34 37 44 36 26 20 17 14
26 30 31 30 35 30 27 43 46 45 49 48 33 30 36 31 37 36 39 39 42 42 38 30 22 17 14
28 28 33 32 33 37 31 38 38 47 53 58 56 29 37 45 51 46 46 45 45 39 33 27 21 17 13
28 29 31 34 30 36 41 34 41 42 40 56 69 52 28 51 60 59 57 54 45 35 27 25 22 18 15
30 28 30 33 33 34 35 39 40 44 41 46 68 78 36 40 77 64 51 50 47 48 43 33 24 19 15
35 28 27 31 35 35 36 37 33 40 40 37 66 68 52 35 35 36 51 49 53 48 39 39 28 19 13
36 33 29 28 31 35 34 35 31 31 41 43 48 63 62 47 38 40 50 39 52 48 42 36 29 21 14
38 35 30 27 27 28 28 31 32 31 37 48 57 55 52 47 44 37 39 50 45 45 40 33 25 20 13
36 34 32 25 22 23 25 25 29 33 36 47 60 63 55 50 47 46 46 39 46 45 38 30 27 22 16
36 33 23 27 21 22 24 26 28 28 36 43 56 70 68 56 65 54 52 53 55 50 39 35 27 26 20
32 32 27 22 21 20 21 25 29 31 31 41 58 63 70 65 62 70 58 59 57 52 46 39 24 26 24
28 27 22 17 14 13 16 22 22 27 36 39 53 61 72 71 60 78 66 66 63 61 49 28 14 12 24
25 23 19 11 10 10 17 11 17 19 33 41 50 61 73 72 67 70 61 66 66 65 57 47 26 19 21
Wind_Direction_500mb
290 276 272 265 251 263 234 222 204 234 244 231 224 207 195 171 171 170 173 174 178 182 177 170 168 174 166
291 282 255 258 266 251 247 238 232 229 209 215 236 233 190 162 164 178 171 175 181 182 177 170 171 176 181
287 284 267 251 254 239 222 214 198 200 197 207 230 233 225 162 176 184 187 181 187 189 191 185 184 184 184
286 283 278 252 249 240 220 210 198 195 196 212 221 227 227 176 199 199 188 184 178 185 197 197 197 200 203
289 276 275 272 244 246 226 213 206 208 203 211 220 222 223 216 210 205 190 180 178 188 199 198 200 204 194
301 283 273 268 264 241 230 235 217 206 206 210 224 241 227 212 214 209 191 181 173 179 191 191 193 192 181
307 292 279 272 263 252 236 231 226 220 213 222 214 218 228 214 217 210 201 194 178 157 189 196 180 171 163
312 301 284 273 269 258 253 240 239 237 208 239 211 216 231 221 216 210 196 183 158 166 180 184 174 163 158
311 298 288 273 268 260 254 249 241 238 237 214 207 212 216 230 216 228 197 183 168 172 175 174 171 166 161
313 303 288 278 264 258 249 241 238 238 230 234 197 206 213 220 223 214 195 186 177 175 182 178 167 177 176
315 304 291 284 266 257 253 246 242 242 226 221 215 211 219 213 217 221 217 186 184 189 180 171 171 187 195
317 313 296 281 259 244 246 249 249 244 235 223 220 209 211 220 223 215 210 196 200 186 179 177 192 195 202
317 317 295 279 250 241 244 242 236 239 237 235 222 216 216 219 224 215 212 198 193 193 182 185 192 201 206
322 322 316 298 264 230 233 243 245 238 239 239 225 215 214 210 216 213 206 200 199 197 189 188 200 217 211
320 325 316 316 275 256 248 239 239 246 239 245 224 216 216 212 208 208 207 206 200 195 199 183 177 205 213
331 331 327 342 280 286 295 262 236 258 260 242 215 210 212 209 210 208 205 212 202 199 205 200 207 211 187
Wind_Speed_850mb
24 24 25 30 24 30 36 41 47 34 31 28 41 53 53 39 26 34 34 37 32 32 27 23 25 22 15
25 23 24 31 34 29 32 38 53 47 46 35 41 43 50 37 32 29 34 35 35 36 28 24 23 21 14
26 25 24 29 31 26 36 31 38 44 44 34 41 35 33 42 27 27 28 37 37 39 29 22 20 18 14
26 28 27 29 33 29 33 46 43 46 42 33 41 33 36 30 24 28 32 34 37 44 36 26 20 17 14
26 30 31 30 35 30 27 43 46 45 49 48 33 30 36 31 37 36 39 39 42 42 38 30 22 17 14
28 28 33 32 33 37 31 38 38 47 53 58 56 29 37 45 51 46 46 45 45 39 33 27 21 17 13
28 29 31 34 30 36 41 34 41 42 40 56 69 52 28 51 60 59 57 54 45 35 27 25 22 18 15
30 28 30 33 33 34 35 39 40 44 41 46 68 78 36 40 77 64 51 50 47 48 43 33 24 19 15
35 28 27 31 35 35 36 37 33 40 40 37 66 68 52 35 35 36 51 49 53 48 39 39 28 19 13
36 33 29 28 31 35 34 35 31 31 41 43 48 63 62 47 38 40 50 39 52 48 42 36 29 21 14
38 35 30 27 27 28 28 31 32 31 37 48 57 55 52 47 44 37 39 50 45 45 40 33 25 20 13
36 34 32 25 22 23 25 25 29 33 36 47 60 63 55 50 47 46 46 39 46 45 38 30 27 22 16
36 33 23 27 21 22 24 26 28 28 36 43 56 70 68 56 65 54 52 53 55 50 39 35 27 26 20
32 32 27 22 21 20 21 25 29 31 31 41 58 63 70 65 62 70 58 59 57 52 46 39 24 26 24
28 27 22 17 14 13 16 22 22 27 36 39 53 61 72 71 60 78 66 66 63 61 49 28 14 12 24
25 23 19 11 10 10 17 11 17 19 33 41 50 61 73 72 67 70 61 66 66 65 57 47 26 19 21
Wind_Direction_850mb
290 276 272 265 251 263 234 222 204 234 244 231 224 207 195 171 171 170 173 174 178 182 177 170 168 174 166
291 282 255 258 266 251 247 238 232 229 209 215 236 233 190 162 164 178 171 175 181 182 177 170 171 176 181
287 284 267 251 254 239 222 214 198 200 197 207 230 233 225 162 176 184 187 181 187 189 191 185 184 184 184
286 283 278 252 249 240 220 210 198 195 196 212 221 227 227 176 199 199 188 184 178 185 197 197 197 200 203
289 276 275 272 244 246 226 213 206 208 203 211 220 222 223 216 210 205 190 180 178 188 199 198 200 204 194
301 283 273 268 264 241 230 235 217 206 206 210 224 241 227 212 214 209 191 181 173 179 191 191 193 192 181
307 292 279 272 263 252 236 231 226 220 213 222 214 218 228 214 217 210 201 194 178 157 189 196 180 171 163
312 301 284 273 269 258 253 240 239 237 208 239 211 216 231 221 216 210 196 183 158 166 180 184 174 163 158
311 298 288 273 268 260 254 249 241 238 237 214 207 212 216 230 216 228 197 183 168 172 175 174 171 166 161
313 303 288 278 264 258 249 241 238 238 230 234 197 206 213 220 223 214 195 186 177 175 182 178 167 177 176
315 304 291 284 266 257 253 246 242 242 226 221 215 211 219 213 217 221 217 186 184 189 180 171 171 187 195
317 313 296 281 259 244 246 249 249 244 235 223 220 209 211 220 223 215 210 196 200 186 179 177 192 195 202
317 317 295 279 250 241 244 242 236 239 237 235 222 216 216 219 224 215 212 198 193 193 182 185 192 201 206
322 322 316 298 264 230 233 243 245 238 239 239 225 215 214 210 216 213 206 200 199 197 189 188 200 217 211
320 325 316 316 275 256 248 239 239 246 239 245 224 216 216 212 208 208 207 206 200 195 199 183 177 205 213
331 331 327 342 280 286 295 262 236 258 260 242 215 210 212 209 210 208 205 212 202 199 205 200 207 211 187